Regional Weather Roundup
Issued by NWS

Home | Current Version | Previous Version | Graphics & Text | Print | Product List | Glossary On
Versions: 1 2 3 4 5 6 7 8 9 10 11 12 13 14 15 16 17 18 19 20 21 22 23 24 25 26 27 28 29 30 31 32 33 34 35 36 37 38 39 40 41 42 43 44 45 46 47 48 49 50
000
ASUS43 KMPX 051701
RWRMN
WEATHER ROUNDUP FOR MINNESOTA
NATIONAL WEATHER SERVICE TWIN CITIES/CHANHASSEN MN
1200 PM CDT TUE MAY 05 2015


NOTE: "FAIR" INDICATES FEW OR NO CLOUDS BELOW 12,000 FEET WITH NO
SIGNIFICANT WEATHER AND/OR OBSTRUCTIONS TO VISIBILITY. N/A MEANS
CURRENT SKY AND/OR WEATHER CONDITIONS ARE NOT AVAILABLE.

MNZ060>063-068>070-051800-
   Twin Cities Metro

CITY           SKY/WX    TMP DP  RH WIND       PRES   REMARKS
TWIN CITIES    MOSUNNY   68  44  42 E17G25    30.19F
ST PAUL        SUNNY     68  45  43 E14G22    30.20F
CRYSTAL        SUNNY     70  43  37 E15G22    30.18F
BLAINE         MOSUNNY   70  39  32 E16       30.19F
LAKEVILLE      PTSUNNY   64  48  55 SE15G21   30.18F
EDEN PRAIRIE   SUNNY     67  49  52 SE17      30.17F
SOUTH ST PAUL  SUNNY     68  41  37 SE10G20   30.19F
LAKE ELMO      FAIR      68  41  37 E12G20    30.21F
$$
MNZ001>005-007-008-013>017-022>024-027-028-051800-
   Northwest Minnesota

CITY           SKY/WX    TMP DP  RH WIND       PRES   REMARKS
BEMIDJI        SUNNY     67  23  18 SE16G23   30.18F
HALLOCK        SUNNY     72  18  13 S21G26    30.11F
ROSEAU         SUNNY     72  21  15 S18G25    30.15F
WARROAD        SUNNY     70  34  26 SE18G25   30.16F
THIEF RVR FALL SUNNY     70  23  17 S15       30.15F
CROOKSTON      SUNNY     72  23  16 S18G24    30.14F
FOSSTON        SUNNY     70  19  14 SE14      30.16F
DETROIT LAKES  SUNNY     68  27  21 SE17      30.17S
MOORHEAD       SUNNY     72  21  15 SE16G25   30.13F
PARK RAPIDS    SUNNY     69  21  16 SE14G22   30.17F
MAHNOMEN       FAIR      67  21  17 SE13G20   30.16F
$$
MNZ006-009>011-018-025>026-051800-
   North Central Minnesota

CITY           SKY/WX    TMP DP  RH WIND       PRES   REMARKS
BAUDETTE       SUNNY     69  25  19 VRB7      30.17F
FLAG ISLAND    SUNNY     59  32  36 SE8       30.17F
INTL FALLS     SUNNY     68  24  19 VRB7G18   30.20F
WASKISH        SUNNY     70  30  23 SE10G20   30.18F
BIG FORK       SUNNY     70  23  17 S12G20    30.21F
LONGVILLE      SUNNY     70  21  16 SE8G20    30.20F
GRAND RAPIDS   SUNNY     66  25  20 SE12G21   30.22F
CRANE LAKE     SUNNY     66  19  16 S7        30.24F
COOK           SUNNY     66  27  22 S12       30.22F
WALKER         FAIR      66  25  20 SE6       30.19F
$$
MNZ012-019>021-037-051800-
   Northeast Minnesota

CITY           SKY/WX    TMP DP  RH WIND       PRES   REMARKS
DULUTH         SUNNY     66  28  24 E13       30.25F
ELY            SUNNY     66  19  16 S13       30.24F
HIBBING        SUNNY     69  22  16 SE12      30.23F
EVELETH        SUNNY     68  25  19 SE13G18   30.24F
DULUTH HARBOR    N/A     46  37  71 E5        30.27F
TWO HARBORS    SUNNY     70  37  30 SE10      30.25S
SILVER BAY     SUNNY     66  27  22 SE12      30.26S
GRAND MARAIS     N/A     50  28  42 SE3       30.29F
G MARAIS ARPRT SUNNY     63  21  20 S10G16    30.30F
$$
MNZ029>031-032-039>041-046>048-054>057-064-051800-
   West Central Minnesota

CITY           SKY/WX    TMP DP  RH WIND       PRES   REMARKS
FERGUS FALLS   SUNNY     70  28  21 SE15G22   30.14F
WHEATON        SUNNY     70  28  21 E18G25    30.12F
MORRIS         SUNNY     73  32  21 SE15G25   30.11F
ALEXANDRIA     SUNNY     70  30  22 SE16G24   30.16F
ELBOW LAKE     FAIR      69  30  23 SE16G24   30.13F
WADENA         SUNNY     68  32  26 SE14G24   30.16F
GLENWOOD       SUNNY     70  34  26 E18G29    30.16S
APPLETON       SUNNY     73  32  21 SE16G24   30.10F
BENSON         SUNNY     72  30  21 S16G24    30.12F
ORTONVILLE     SUNNY     72  30  21 E13G23    30.10F
MADISON        SUNNY     73  30  20 SE16      30.10F
WILLMAR        FAIR      73  45  35 E18G24    30.14F
$$
MNZ033>034-036-042>043-049>051-058-059-051800-
   Central Minnesota

CITY           SKY/WX    TMP DP  RH WIND       PRES   REMARKS
ST CLOUD       SUNNY     68  43  40 SE13G21   30.17F
SAUK CENTRE    FAIR      69  38  32 E14G21    30.16F
PAYNESVILLE    SUNNY     66  41  40 E10       30.17F
AITKIN         SUNNY     70  21  16 SE15G21   30.19F
PINE RIVER     SUNNY     66  34  30 SE15G21   30.22F
BRAINERD       SUNNY     67  35  30 E9G17     30.20F
STAPLES        SUNNY     68  27  21 SE9G20    30.17F
LONG PRAIRIE   FAIR      68  34  28 E13G20    30.17F
LITTLE FALLS   SUNNY     68  34  28 SE14G22   30.18F
LITCHFIELD     SUNNY     70  48  46 E17G23    30.16F
BUFFALO        SUNNY     69  44  40 E13G18    30.18F
MAPLE LAKE     SUNNY     69  49  48 E10G17    30.18F
$$
MNZ037-044-045-052-053-051800-
   East Central Minnesota

CITY           SKY/WX    TMP DP  RH WIND       PRES   REMARKS
PRINCETON      SUNNY     70  39  32 E16       30.19F
MORA           SUNNY     66  32  28 SE10G18   30.23F
CAMBRIDGE      SUNNY     72  46  40 SE12G21   30.18F
RUSH CITY      SUNNY     70  32  25 E10G18    30.22F
MOOSE LAKE     SUNNY     68  34  28 SE8G16    30.21F
HINCKLEY       FAIR      68  30  24 SE14G23   30.23S
CLOQUET        SUNNY     66  25  20 SE9       30.24F
MCGREGOR       SUNNY     68  32  26 SE15      30.22F
$$
MNZ071>073-080-081-089-090-097-098-051800-
   Southwest Minnesota

CITY           SKY/WX    TMP DP  RH WIND       PRES   REMARKS
MONTEVIDEO     SUNNY     73  39  29 S20G26    30.11F
GRANITE FALLS  SUNNY     71  49  46 E13G22    30.13S
CANBY          MOSUNNY   72  35  25 SE17G23   30.11F
MARSHALL       CLOUDY    66  43  42 SE17G23   30.11R
REDWOOD FALLS  PTSUNNY   70  51  51 E15G28    30.12F
OLIVIA         SUNNY     68  48  49 SE17G24   30.12F
PIPESTONE      PTSUNNY   64  48  55 SE12G21   30.09F
WORTHINGTON    CLOUDY    61  52  72 E15       30.12R
JACKSON        CLOUDY    59  54  82 E15       30.14S HAZE
TRACY          CLOUDY    65  49  55 SE14      30.12S
SLAYTON        PTSUNNY   65  44  48 E13       30.12F
$$
MNZ065>067-074>077-082>085-091>093-051800-
   South Central Minnesota

CITY           SKY/WX    TMP DP  RH WIND       PRES   REMARKS
MANKATO        CLOUDY    57  52  82 E16       30.17S
NEW ULM        CLOUDY    63  52  67 SE15      30.15R
ST JAMES       CLOUDY    59  52  77 E13       30.15F
FAIRMONT       CLOUDY    57  50  77 E14       30.14S
GLENCOE        SUNNY     71  51  50 E17       30.16S
FARIBAULT      CLOUDY    57  52  82 E12G17    30.20S
OWATONNA       PTSUNNY   57  52  82 E22G28    30.18S
WASECA         CLOUDY    55  50  82 E20       30.19R
ALBERT LEA     CLOUDY    55  54  94 SE14      30.18S
$$
MNZ078>079-086>088-094>096-051800-
   Southeast Minnesota

CITY           SKY/WX    TMP DP  RH WIND       PRES   REMARKS
ROCHESTER      CLOUDY    55  50  83 E23G29    30.22S
RED WING       MOSUNNY   66  43  42 SE15      30.20F
STANTON        CLOUDY    65  49  56 E16G22    30.19S
DODGE CENTER   CLOUDY    57  52  82 E18G25    30.20S
WINONA         CLOUDY    55  48  76 SE10G18   30.24F
AUSTIN         CLOUDY    55  52  88 E22       30.18S
PRESTON        LGT RAIN  51  49  92 E14       30.22S
$$
ABBREVIATIONS USED IN REMARKS
   TC - TEMPERATURES IN CELSIUS
  WCI - WIND CHILL INDEX
   HX - HEAT INDEX
  VSB - VISIBILITY
$$



USA.gov is the U.S. government's official web portal to all federal, state and local government web resources and services.